Regional Weather Roundup
Issued by NWS

Home | Current Version | Previous Version | Graphics & Text | Print | Product List | Glossary On
Versions: 1 2 3 4 5 6 7 8 9 10 11 12 13 14 15 16 17 18 19 20 21 22 23 24 25 26 27 28 29 30 31 32 33 34 35 36 37 38 39 40 41 42 43 44 45 46 47 48 49 50
000
ASUS45 KPSR 152310
RWRAZ

ARIZONA HOURLY REGIONAL WEATHER ROUNDUP
NATIONAL WEATHER SERVICE PHOENIX AZ
400 PM MST SUN JAN 15 2017

NOTE: FAIR INDICATES FEW OR NO CLOUDS BELOW 12,000 FEET WITH NO
SIGNIFICANT WEATHER AND/OR OBSTRUCTIONS TO VISIBILITY.

AZZ001>003-036-160000-
NORTHWEST ARIZONA

CITY           SKY/WX    TMP DP  RH WIND       PRES   REMARKS
BULLHEAD CITY  SUNNY     64  30  27 N17       29.97S
KINGMAN        MOSUNNY   52  33  48 N3        29.98S
$$

AZZ004>008-015-016-018-160000-
NORTH CENTRAL ARIZONA

CITY           SKY/WX    TMP DP  RH WIND       PRES   REMARKS
GRAND CANYON   CLOUDY    36  35  96 NW6       29.97R WCI  31
WILLIAMS       CLOUDY    39  34  81 W9        29.97S WCI  33
PRESCOTT       LGT RAIN  42  41  96 NW7       29.97R
FLAGSTAFF      CLOUDY    38  34  85 W6        29.96R WCI  33
PAYSON         CLOUDY    45  41  87 VRB7      29.99R
PAGE           CLOUDY    47  34  60 E3        29.93R
$$

AZZ009>014-017-160000-
NORTHEAST ARIZONA

CITY           SKY/WX    TMP DP  RH WIND       PRES   REMARKS
WINSLOW        CLOUDY    47  40  76 NW12      29.93R
SAINT JOHNS    CLOUDY    43  38  82 NW13      29.91R
SHOW LOW       PTSUNNY   39  34  81 W7        29.95R WCI  34
$$

AZZ023-160000-
GREATER PHOENIX AREA

CITY           SKY/WX    TMP DP  RH WIND       PRES   REMARKS
PHOENIX        CLOUDY    59  48  67 W9        29.97R
BUCKEYE        CLOUDY    59  50  72 SW10      29.99R
GLENDALE       PTSUNNY   59  52  77 SW12      29.99
LUKE AFB       MOSUNNY   59  50  70 SW12      29.96R
DEER VALLEY    CLOUDY    56  49  77 SW9       29.96S
SCOTTSDALE     CLOUDY    57  48  72 W8        29.98S
MESA-FALCON    CLOUDY   N/A N/A N/A S6        29.95R
MESA-GATEWAY   CLOUDY    55  50  82 SW5       29.90F
$$

AZZ027-028-160000-
SOUTHWEST MARICOPA COUNTY AND PINAL COUNTY

CITY           SKY/WX    TMP DP  RH WIND       PRES   REMARKS
CASA GRANDE    LGT RAIN  53  51  93 S14       30.01R
$$

AZZ503-504-507>509-160000-
SOUTHEAST ARIZONA

CITY           SKY/WX    TMP DP  RH WIND       PRES   REMARKS
TUCSON         CLOUDY    53  47  79 NE5       30.02S
DAVIS-MONTHAN  PTSUNNY   50  48  93 CALM      30.01S
RYAN FIELD       N/A     54  46  76 W5        30.03R
NOGALES        CLOUDY    46  39  76 S8        30.04R
SIERRA VISTA   MOSUNNY   46  37  70 W20       30.02S
DOUGLAS        CLOUDY    47  39  74 SW9       30.03R
SAFFORD        MOSUNNY   53  45  74 W14       29.93R
$$

AZZ020-021-025-026-031-160000-
SOUTHWEST ARIZONA

CITY           SKY/WX    TMP DP  RH WIND       PRES   REMARKS
YUMA           NOT AVBL
$$

CAZ031-033-041-043-047-048-061-160000-
SOUTHERN CALIFORNIA

CITY           SKY/WX    TMP DP  RH WIND       PRES   REMARKS
DOWNTOWN L.A.  PTSUNNY   64  51  62 VRB5      30.01S
L.A. AIRPORT   MOSUNNY   62  52  69 SE13      30.02S
SAN DIEGO      PTSUNNY   61  51  70 S9        30.06R
BURBANK        MOSUNNY   61  45  55 SE10      30.01S
ONTARIO        PTSUNNY   61  46  57 W3        30.02S
RIVERSIDE      PTSUNNY   54  47  77 W3        30.02S
PALM SPRINGS   MOSUNNY   68  45  43 NW9       29.98R
IMPERIAL       MOSUNNY   70  45  40 CALM      29.95S
BLYTHE         SUNNY     66  41  40 VRB6      29.96S
NEEDLES        SUNNY     66  34  30 NE8       29.97S
$$

NVZ020-UTZ003-160000-
SOUTHERN NEVADA-UTAH

CITY           SKY/WX    TMP DP  RH WIND       PRES   REMARKS
LAS VEGAS      MOSUNNY   58  28  32 CALM      29.99R
SALT LAKE CITY PTSUNNY   31  24  75 NW6       30.11S WCI  25
$$

NMZ009-TXZ055-160000-
NEW MEXICO-WEST TEXAS

CITY           SKY/WX    TMP DP  RH WIND       PRES   REMARKS
ALBUQUERQUE    CLOUDY    43  35  73 E8        29.85R
EL PASO        LGT RAIN  43  38  82 SW23      29.91S
$$


........................KEY........................
SKY/WX - SKY CONDITION/WEATHER
TMP    - TEMPERATURE IN FAHRENHEIT
DP     - DEW POINT IN FAHRENHEIT
RH     - RELATIVE HUMIDITY IN PERCENT
WIND   - DIRECTION AND SPEED IN MILES PER HOUR (MPH)
VRB    - VARIABLE WIND DIRECTION
PRES   - MEAN SEA LEVEL PRESSURE IN INCHES OF MERCURY
         F - FALLING PRESSURE   R - RISING PRESSURE
         S - STEADY PRESSURE
VSB    - VISIBILITY IN MILES
HX     - HEAT INDEX IN FAHRENHEIT
WCI    - WIND CHILL INDEX IN FAHRENHEIT
TC     - TEMPERATURE IN CELSIUS WHICH IS ALSO KNOWN AS
         TEMPERATURE IN CENTIGRADE
AFB    - AIR FORCE BASE
         LUKE AFB IS LUKE AIR FORCE BASE
         DAVIS-MONTHAN IS DAVIS-MONTHAN AIR FORCE BASE
NAS    - NAVAL AIR STATION
         EL CENTRO NAS IS EL CENTRO NAVAL AIR STATION
N/A    - NOT AVAILABLE




USA.gov is the U.S. government's official web portal to all federal, state and local government web resources and services.